Time,TemperatureF,DewpointF,PressureIn,WindDirection,WindDirectionDegrees,WindSpeedMPH,WindSpeedGustMPH,Humidity,HourlyPrecipIn,Conditions,Clouds,dailyrainin,SoftwareType,DateUTC
2013-02-05 00:02:00,22.0,21.0,-100.00,ENE,72,0.0,0.0,90,1.14,,,-99.99,,2013-02-05 05:02:00,
2013-02-05 00:12:00,22.0,21.0,-100.00,East,98,0.0,0.0,90,2.83,,,-99.99,,2013-02-05 05:12:00,
2013-02-05 00:22:00,22.0,21.0,-100.00,ENE,64,0.0,0.0,90,1.14,,,-99.99,,2013-02-05 05:22:00,
2013-02-05 00:32:00,22.0,19.0,-100.00,ENE,59,0.0,0.0,90,2.83,,,-99.99,,2013-02-05 05:32:00,
2013-02-05 00:42:00,22.0,19.0,-100.00,ENE,69,0.0,0.0,90,1.14,,,-99.99,,2013-02-05 05:42:00,
2013-02-05 00:52:00,22.0,21.0,-100.00,ENE,73,0.0,0.0,90,2.83,,,-99.99,,2013-02-05 05:52:00,
2013-02-05 01:02:00,23.0,21.0,-100.00,East,101,0.0,0.0,91,0.00,,,-99.99,,2013-02-05 06:02:00,
2013-02-05 01:11:00,22.0,19.0,-100.00,ENE,63,0.0,0.0,91,0.00,,,-99.99,,2013-02-05 06:11:00,
2013-02-05 01:21:00,23.0,21.0,-100.00,NNE,29,0.0,0.0,91,0.00,,,-99.99,,2013-02-05 06:21:00,
2013-02-05 01:32:00,24.0,23.0,-100.00,NE,40,0.0,0.0,91,0.00,,,-99.99,,2013-02-05 06:32:00,
2013-02-05 01:42:00,23.0,21.0,-100.00,ENE,74,0.0,0.0,91,0.00,,,-99.99,,2013-02-05 06:42:00,
2013-02-05 01:51:00,23.0,23.0,-100.00,ENE,62,0.0,0.0,93,0.00,,,-99.99,,2013-02-05 06:51:00,
2013-02-05 02:01:00,24.0,23.0,-100.00,ENE,76,0.0,0.0,91,0.00,,,-99.99,,2013-02-05 07:01:00,
2013-02-05 02:11:00,22.0,19.0,-100.00,NNW,347,0.0,0.0,90,0.00,,,-99.99,,2013-02-05 07:11:00,
2013-02-05 02:22:00,21.0,19.0,-100.00,NNE,14,0.0,0.0,90,0.00,,,-99.99,,2013-02-05 07:22:00,
2013-02-05 02:32:00,21.0,19.0,-100.00,West,273,0.0,0.0,90,0.00,,,-99.99,,2013-02-05 07:32:00,
2013-02-05 02:42:00,21.0,19.0,-100.00,ENE,69,0.0,0.0,90,0.00,,,-99.99,,2013-02-05 07:42:00,
2013-02-05 02:52:00,22.0,21.0,-100.00,ENE,59,0.0,0.0,91,0.00,,,-99.99,,2013-02-05 07:52:00,
2013-02-05 03:01:00,21.0,19.0,-100.00,East,87,0.0,0.0,90,0.00,,,-99.99,,2013-02-05 08:01:00,
2013-02-05 03:11:00,20.0,19.0,-100.00,East,79,0.0,0.0,90,0.00,,,-99.99,,2013-02-05 08:11:00,
2013-02-05 03:21:00,21.0,19.0,-100.00,East,81,0.0,0.0,90,0.00,,,-99.99,,2013-02-05 08:21:00,
2013-02-05 03:32:00,20.0,19.0,-100.00,ENE,67,0.0,0.0,91,0.00,,,-99.99,,2013-02-05 08:32:00,
2013-02-05 03:42:00,23.0,23.0,-100.00,East,80,0.0,0.0,93,0.00,,,-99.99,,2013-02-05 08:42:00,
2013-02-05 03:52:00,21.0,19.0,-100.00,ENE,57,0.0,0.0,90,0.00,,,-99.99,,2013-02-05 08:52:00,
2013-02-05 04:02:00,22.0,21.0,-100.00,ENE,62,0.0,0.0,91,0.00,,,-99.99,,2013-02-05 09:02:00,
2013-02-05 04:11:00,23.0,21.0,-100.00,ENE,60,0.0,0.0,91,0.00,,,-99.99,,2013-02-05 09:11:00,
2013-02-05 04:21:00,22.0,19.0,-100.00,NNE,25,0.0,0.0,91,0.00,,,-99.99,,2013-02-05 09:21:00,
2013-02-05 04:32:00,24.0,23.0,-100.00,NE,39,0.0,0.0,91,0.00,,,-99.99,,2013-02-05 09:32:00,
2013-02-05 04:42:00,21.0,19.0,-100.00,NE,42,0.0,0.0,91,0.00,,,-99.99,,2013-02-05 09:42:00,
2013-02-05 04:51:00,23.0,21.0,-100.00,ENE,62,0.0,0.0,91,0.00,,,-99.99,,2013-02-05 09:51:00,
2013-02-05 05:02:00,22.0,21.0,-100.00,NE,55,1.0,1.0,91,0.00,,,-99.99,,2013-02-05 10:02:00,
2013-02-05 05:11:00,22.0,21.0,-100.00,NE,55,0.0,1.0,91,0.00,,,-99.99,,2013-02-05 10:11:00,
2013-02-05 05:21:00,23.0,21.0,-100.00,ENE,62,0.0,1.0,91,0.00,,,-99.99,,2013-02-05 10:21:00,
2013-02-05 05:32:00,23.0,21.0,-100.00,East,90,0.0,1.0,91,0.00,,,-99.99,,2013-02-05 10:32:00,
2013-02-05 05:42:00,24.0,23.0,-100.00,ESE,120,1.0,1.0,91,0.00,,,-99.99,,2013-02-05 10:42:00,
2013-02-05 05:52:00,24.0,23.0,-100.00,East,83,1.0,1.0,93,0.00,,,-99.99,,2013-02-05 10:52:00,
2013-02-05 06:01:00,24.0,23.0,-100.00,ENE,76,0.0,1.0,91,0.00,,,-99.99,,2013-02-05 11:01:00,
2013-02-05 06:11:00,23.0,21.0,-100.00,ENE,63,1.0,1.0,91,0.00,,,-99.99,,2013-02-05 11:11:00,
2013-02-05 06:22:00,24.0,23.0,-100.00,East,86,1.0,1.0,91,0.00,,,-99.99,,2013-02-05 11:22:00,
2013-02-05 06:32:00,23.0,21.0,-100.00,ENE,60,1.0,1.0,91,0.00,,,-99.99,,2013-02-05 11:32:00,
2013-02-05 06:42:00,21.0,19.0,-100.00,ENE,60,2.0,2.0,90,0.00,,,-99.99,,2013-02-05 11:42:00,
2013-02-05 06:52:00,22.0,21.0,-100.00,East,100,2.0,2.0,90,0.00,,,-99.99,,2013-02-05 11:52:00,
2013-02-05 07:02:00,24.0,23.0,-100.00,East,86,1.0,2.0,93,0.00,,,-99.99,,2013-02-05 12:02:00,
2013-02-05 07:12:00,24.0,21.0,-100.00,ENE,76,2.0,2.0,90,0.00,,,-99.99,,2013-02-05 12:12:00,
2013-02-05 07:22:00,24.0,23.0,-100.00,ENE,74,1.0,2.0,90,0.00,,,-99.99,,2013-02-05 12:22:00,
2013-02-05 07:32:00,24.0,23.0,-100.00,ENE,63,2.0,2.0,90,0.00,,,-99.99,,2013-02-05 12:32:00,
2013-02-05 07:42:00,24.0,21.0,-100.00,ENE,70,2.0,2.0,90,0.00,,,-99.99,,2013-02-05 12:42:00,
2013-02-05 07:52:00,22.0,21.0,-100.00,ENE,63,1.0,2.0,90,0.00,,,-99.99,,2013-02-05 12:52:00,
2013-02-05 08:02:00,23.0,21.0,-100.00,ENE,77,1.0,2.0,90,0.00,,,-99.99,,2013-02-05 13:02:00,
2013-02-05 08:12:00,23.0,21.0,-100.00,ESE,104,2.0,2.0,90,0.00,,,-99.99,,2013-02-05 13:12:00,
2013-02-05 08:22:00,23.0,21.0,-100.00,East,87,2.0,2.0,90,0.00,,,-99.99,,2013-02-05 13:22:00,
2013-02-05 08:32:00,22.0,21.0,-100.00,East,98,1.0,2.0,90,0.00,,,-99.99,,2013-02-05 13:32:00,
2013-02-05 08:42:00,20.0,19.0,-100.00,WSW,249,1.0,2.0,89,0.00,,,-99.99,,2013-02-05 13:42:00,
2013-02-05 08:52:00,21.0,19.0,-100.00,WSW,254,1.0,2.0,89,0.00,,,-99.99,,2013-02-05 13:52:00,
2013-02-05 09:01:00,21.0,19.0,-100.00,WSW,255,0.0,2.0,89,0.00,,,-99.99,,2013-02-05 14:01:00,
2013-02-05 09:12:00,24.0,21.0,-100.00,ENE,72,0.0,2.0,90,0.00,,,-99.99,,2013-02-05 14:12:00,
2013-02-05 09:21:00,22.0,19.0,-100.00,WSW,256,0.0,2.0,89,0.00,,,-99.99,,2013-02-05 14:21:00,
2013-02-05 09:32:00,23.0,21.0,-100.00,North,5,0.0,2.0,90,0.00,,,-99.99,,2013-02-05 14:32:00,
2013-02-05 09:42:00,22.0,21.0,-100.00,SSW,204,1.0,2.0,88,0.00,,,-99.99,,2013-02-05 14:42:00,
2013-02-05 09:52:00,22.0,19.0,-100.00,SSE,168,2.0,2.0,88,0.00,,,-99.99,,2013-02-05 14:52:00,
2013-02-05 10:02:00,23.0,19.0,-100.00,South,186,3.0,4.0,86,0.00,,,-99.99,,2013-02-05 15:02:00,
2013-02-05 10:11:00,24.0,21.0,-100.00,SSE,166,3.0,4.0,86,0.00,,,-99.99,,2013-02-05 15:11:00,
2013-02-05 10:21:00,23.0,21.0,-100.00,SSW,211,2.0,4.0,86,0.00,,,-99.99,,2013-02-05 15:21:00,
2013-02-05 10:32:00,25.0,21.0,-100.00,SSW,193,2.0,4.0,85,0.00,,,-99.99,,2013-02-05 15:32:00,
2013-02-05 10:42:00,24.0,21.0,-100.00,SSW,199,2.0,4.0,84,0.00,,,-99.99,,2013-02-05 15:42:00,
2013-02-05 10:52:00,25.0,21.0,-100.00,WSW,242,2.0,4.0,82,0.00,,,-99.99,,2013-02-05 15:52:00,
2013-02-05 11:01:00,26.0,21.0,-100.00,South,190,2.0,4.0,80,0.00,,,-99.99,,2013-02-05 16:01:00,
2013-02-05 11:12:00,26.0,21.0,-100.00,SSW,203,1.0,4.0,78,0.00,,,-99.99,,2013-02-05 16:12:00,
2013-02-05 11:22:00,27.0,21.0,-100.00,South,169,1.0,4.0,77,0.00,,,-99.99,,2013-02-05 16:22:00,
2013-02-05 11:32:00,26.0,21.0,-100.00,SSW,208,1.0,4.0,76,0.00,,,-99.99,,2013-02-05 16:32:00,
2013-02-05 11:42:00,27.0,21.0,-100.00,South,183,1.0,4.0,76,0.00,,,-99.99,,2013-02-05 16:42:00,
2013-02-05 11:52:00,27.0,21.0,-100.00,SSE,149,1.0,4.0,75,0.00,,,-99.99,,2013-02-05 16:52:00,
2013-02-05 12:01:00,27.0,21.0,-100.00,SW,235,1.0,4.0,73,0.00,,,-99.99,,2013-02-05 17:01:00,
2013-02-05 12:12:00,28.0,21.0,-100.00,WNW,288,1.0,4.0,73,0.00,,,-99.99,,2013-02-05 17:12:00,
2013-02-05 12:22:00,28.0,21.0,-100.00,SW,231,1.0,4.0,75,0.00,,,-99.99,,2013-02-05 17:22:00,
2013-02-05 12:32:00,28.0,21.0,-100.00,WSW,254,1.0,4.0,72,0.00,,,-99.99,,2013-02-05 17:32:00,
2013-02-05 12:42:00,29.0,21.0,-100.00,WSW,245,1.0,4.0,71,0.00,,,-99.99,,2013-02-05 17:42:00,
2013-02-05 12:52:00,28.0,21.0,-100.00,West,275,0.0,4.0,71,0.00,,,-99.99,,2013-02-05 17:52:00,
2013-02-05 13:02:00,28.0,19.0,-100.00,WNW,285,2.0,4.0,69,0.00,,,-99.99,,2013-02-05 18:02:00,
2013-02-05 13:11:00,29.0,21.0,-100.00,SW,234,2.0,4.0,67,0.00,,,-99.99,,2013-02-05 18:11:00,
2013-02-05 13:22:00,29.0,19.0,-100.00,WSW,248,1.0,4.0,66,0.00,,,-99.99,,2013-02-05 18:22:00,
2013-02-05 13:32:00,29.0,19.0,-100.00,WSW,237,0.0,4.0,64,0.00,,,-99.99,,2013-02-05 18:32:00,
2013-02-05 13:42:00,30.0,19.0,-100.00,SSE,152,0.0,4.0,64,0.00,,,-99.99,,2013-02-05 18:42:00,
2013-02-05 13:52:00,30.0,19.0,-100.00,SW,217,0.0,4.0,64,0.00,,,-99.99,,2013-02-05 18:52:00,
2013-02-05 14:02:00,30.0,19.0,-100.00,WNW,296,2.0,4.0,63,0.00,,,-99.99,,2013-02-05 19:02:00,
2013-02-05 14:11:00,29.0,19.0,-100.00,ENE,73,1.0,4.0,63,0.00,,,-99.99,,2013-02-05 19:11:00,
2013-02-05 14:22:00,29.0,19.0,-100.00,WSW,258,2.0,4.0,62,0.00,,,-99.99,,2013-02-05 19:22:00,
2013-02-05 14:32:00,29.0,19.0,-100.00,West,264,1.0,4.0,63,0.00,,,-99.99,,2013-02-05 19:32:00,
2013-02-05 14:42:00,29.0,19.0,-100.00,WSW,248,2.0,4.0,63,0.00,,,-99.99,,2013-02-05 19:42:00,
2013-02-05 14:52:00,29.0,19.0,-100.00,WNW,303,1.0,4.0,63,0.00,,,-99.99,,2013-02-05 19:52:00,
2013-02-05 15:02:00,29.0,21.0,-100.00,NNW,334,1.0,4.0,68,0.00,,,-99.99,,2013-02-05 20:02:00,
2013-02-05 15:11:00,29.0,21.0,-100.00,NNW,327,0.0,4.0,69,0.00,,,-99.99,,2013-02-05 20:11:00,
2013-02-05 15:21:00,30.0,23.0,-100.00,ESE,117,0.0,4.0,69,0.00,,,-99.99,,2013-02-05 20:21:00,
2013-02-05 15:32:00,30.0,23.0,-100.00,North,9,0.0,4.0,69,0.00,,,-99.99,,2013-02-05 20:32:00,
2013-02-05 15:42:00,30.0,21.0,-100.00,WNW,290,1.0,4.0,68,0.00,,,-99.99,,2013-02-05 20:42:00,
2013-02-05 15:52:00,31.0,21.0,-100.00,West,259,1.0,4.0,66,0.00,,,-99.99,,2013-02-05 20:52:00,
2013-02-05 16:02:00,30.0,21.0,-100.00,NNW,334,1.0,4.0,67,0.00,,,-99.99,,2013-02-05 21:02:00,
2013-02-05 16:11:00,29.0,21.0,-100.00,East,79,1.0,4.0,69,0.00,,,-99.99,,2013-02-05 21:11:00,
2013-02-05 16:22:00,30.0,23.0,-100.00,West,276,3.0,6.0,72,0.00,,,-99.99,,2013-02-05 21:22:00,
2013-02-05 16:32:00,29.0,21.0,-100.00,WNW,288,3.0,6.0,71,0.00,,,-99.99,,2013-02-05 21:32:00,
2013-02-05 16:42:00,28.0,21.0,-100.00,NE,49,1.0,6.0,71,0.00,,,-99.99,,2013-02-05 21:42:00,
2013-02-05 16:52:00,29.0,21.0,-100.00,SW,234,1.0,6.0,71,0.00,,,-99.99,,2013-02-05 21:52:00,
2013-02-05 17:01:00,28.0,21.0,-100.00,NNE,14,1.0,6.0,72,0.00,,,-99.99,,2013-02-05 22:01:00,
2013-02-05 17:11:00,28.0,21.0,-100.00,North,2,1.0,6.0,72,0.00,,,-99.99,,2013-02-05 22:11:00,
2013-02-05 17:22:00,28.0,21.0,-100.00,West,269,0.0,6.0,72,0.00,,,-99.99,,2013-02-05 22:22:00,
2013-02-05 17:32:00,27.0,21.0,-100.00,NW,317,0.0,6.0,75,0.00,,,-99.99,,2013-02-05 22:32:00,
2013-02-05 17:42:00,27.0,21.0,-100.00,ESE,105,1.0,6.0,76,0.00,,,-99.99,,2013-02-05 22:42:00,
2013-02-05 17:51:00,27.0,21.0,-100.00,ENE,66,0.0,6.0,76,0.00,,,-99.99,,2013-02-05 22:51:00,
2013-02-05 18:02:00,27.0,21.0,-100.00,WNW,292,0.0,6.0,75,0.00,,,-99.99,,2013-02-05 23:02:00,
2013-02-05 18:11:00,27.0,21.0,-100.00,WSW,258,2.0,6.0,76,0.00,,,-99.99,,2013-02-05 23:11:00,
2013-02-05 18:22:00,27.0,21.0,-100.00,West,265,2.0,6.0,77,0.00,,,-99.99,,2013-02-05 23:22:00,
2013-02-05 18:32:00,27.0,21.0,-100.00,WNW,292,2.0,6.0,77,0.00,,,-99.99,,2013-02-05 23:32:00,
2013-02-05 18:42:00,26.0,21.0,-100.00,SSW,206,2.0,6.0,78,0.00,,,-99.99,,2013-02-05 23:42:00,
2013-02-05 18:52:00,26.0,21.0,-100.00,ENE,60,1.0,6.0,78,0.00,,,-99.99,,2013-02-05 23:52:00,
2013-02-05 19:02:00,27.0,21.0,-100.00,WSW,248,2.0,6.0,78,0.00,,,-99.99,,2013-02-06 00:02:00,
2013-02-05 19:12:00,26.0,21.0,-100.00,West,280,1.0,6.0,78,0.00,,,-99.99,,2013-02-06 00:12:00,
2013-02-05 19:22:00,26.0,21.0,-100.00,WNW,285,1.0,6.0,80,0.00,,,-99.99,,2013-02-06 00:22:00,
2013-02-05 19:32:00,26.0,21.0,-100.00,West,262,1.0,6.0,80,0.00,,,-99.99,,2013-02-06 00:32:00,
2013-02-05 19:42:00,26.0,21.0,-100.00,West,280,0.0,6.0,80,0.00,,,-99.99,,2013-02-06 00:42:00,
2013-02-05 19:52:00,28.0,25.0,-100.00,WNW,295,0.0,6.0,82,0.00,,,-99.99,,2013-02-06 00:52:00,
2013-02-05 20:02:00,27.0,23.0,-100.00,WSW,237,0.0,6.0,81,0.00,,,-99.99,,2013-02-06 01:02:00,
2013-02-05 20:12:00,26.0,23.0,-100.00,ESE,111,0.0,6.0,81,0.00,,,-99.99,,2013-02-06 01:12:00,
2013-02-05 20:22:00,26.0,23.0,-100.00,WSW,237,0.0,6.0,81,0.00,,,-99.99,,2013-02-06 01:22:00,
2013-02-05 20:32:00,27.0,23.0,-100.00,ENE,57,0.0,6.0,81,0.00,,,-99.99,,2013-02-06 01:32:00,
2013-02-05 20:42:00,27.0,23.0,-100.00,South,179,0.0,6.0,81,0.00,,,-99.99,,2013-02-06 01:42:00,
2013-02-05 20:52:00,26.0,23.0,-100.00,SSW,208,1.0,6.0,81,0.00,,,-99.99,,2013-02-06 01:52:00,
2013-02-05 21:02:00,26.0,23.0,-100.00,WNW,282,2.0,6.0,81,20.39,,,-99.99,,2013-02-06 02:02:00,
2013-02-05 21:12:00,26.0,23.0,-100.00,WSW,258,1.0,6.0,85,17.01,,,-99.99,,2013-02-06 02:12:00,
2013-02-05 21:22:00,26.0,23.0,-100.00,NW,317,1.0,6.0,86,7.36,,,-99.99,,2013-02-06 02:22:00,
2013-02-05 21:32:00,26.0,23.0,-100.00,West,272,0.0,6.0,86,10.79,,,-99.99,,2013-02-06 02:32:00,
2013-02-05 21:42:00,26.0,23.0,-100.00,SSW,196,0.0,6.0,88,4.53,,,-99.99,,2013-02-06 02:42:00,
2013-02-05 21:52:00,26.0,23.0,-100.00,SSW,210,0.0,6.0,88,9.06,,,-99.99,,2013-02-06 02:52:00,
2013-02-05 22:03:00,25.0,23.0,-100.00,WSW,248,0.0,6.0,88,1.14,,,-99.99,,2013-02-06 03:03:00,
2013-02-05 22:12:00,27.0,25.0,-100.00,WSW,247,0.0,6.0,89,0.00,,,-99.99,,2013-02-06 03:12:00,
2013-02-05 22:22:00,27.0,25.0,-100.00,SSE,168,0.0,6.0,89,2.83,,,-99.99,,2013-02-06 03:22:00,
2013-02-05 22:32:00,27.0,25.0,-100.00,South,187,0.0,6.0,89,2.83,,,-99.99,,2013-02-06 03:32:00,
2013-02-05 22:42:00,26.0,25.0,-100.00,West,265,0.0,6.0,90,1.14,,,-99.99,,2013-02-06 03:42:00,
2013-02-05 22:52:00,26.0,25.0,-100.00,South,186,0.0,6.0,90,1.14,,,-99.99,,2013-02-06 03:52:00,
2013-02-05 23:02:00,24.0,21.0,-100.00,SW,232,0.0,6.0,89,0.00,,,-99.99,,2013-02-06 04:02:00,
2013-02-05 23:11:00,24.0,23.0,-100.00,SSW,201,0.0,6.0,89,0.00,,,-99.99,,2013-02-06 04:11:00,
2013-02-05 23:22:00,24.0,23.0,-100.00,WSW,256,0.0,0.0,89,0.00,,,-99.99,,2013-02-06 04:22:00,
2013-02-05 23:32:00,25.0,23.0,-100.00,SW,221,0.0,0.0,89,0.00,,,-99.99,,2013-02-06 04:32:00,
2013-02-05 23:42:00,27.0,25.0,-100.00,West,265,0.0,1.0,90,0.00,,,-99.99,,2013-02-06 04:42:00,
2013-02-05 23:52:00,27.0,25.0,-100.00,SW,234,0.0,1.0,89,0.00,,,-99.99,,2013-02-06 04:52:00,